Location: Peebles
(55.6412°N, 3.1714°W)
Time: 06:33:47
(UTC+01:00)

deb NNS O-4 - Pass Details

Date: 03 July 2022
Orbit: 977 x 1074 km, 89.9° (Epoch: 16 August)

Event Time Altitude Azimuth Distance (km) Brightness Sun altitude
Rises 00:18:38 0° 113° (ESE) 3,863 ? -10.4°
Reaches altitude 10° 00:22:17 10° 93° (E) 2,905 ? -10.5°
Maximum altitude 00:26:01 16° 59° (ENE) 2,479 ? -10.6°
Drops below altitude 10° 00:29:44 10° 24° (NNE) 2,888 ? -10.7°
Sets 00:33:20 0° 5° (N) 3,830 ? -10.8°
